Location: Albuquerque Trailhead
(34.7934°N, 106.3736°W)
Time: 05:37:15
(UTC+00:00)

Cosmos 1656 Rocket - Pass Details

Date: 20 June 2021
Orbit: 794 x 847 km, 71.1° (Epoch: 29 July)

Event Time Altitude Azimuth Distance (km) Brightness Sun altitude
Rises 08:49:09 0° 335° (NNW) 3,413 7.4 -26.9°
Reaches altitude 10° 08:51:38 10° 332° (NNW) 2,473 6.5 -26.7°
Enters shadow 08:56:55 62° 271° (W) 943 3.7 -26.2°
